Tracking 30922 objects as of 2-Jul-2025
HD Live streaming from Space Station
objects crossing your sky now

FENGYUN 1C DEB

Track FENGYUN 1C DEB now!
10-day predictions


NORAD ID: 30565
Int'l Code: 1999-025ALF
Perigee: 765.6 km
Apogee: 976.4 km
Inclination: 98.5 °
Period: 102.2 minutes
Semi major axis: 7242 km
RCS: 0.0268 m2 (small)
Launch date: May 10, 1999
Source: People's Republic of China (PRC)
Launch site: Taiyaun Space Center, China (TSC)

Note: This is SATELLITE DEBRIS
Your satellite tracking list
Your tracking list is empty




NASA's NSSDC Master Catalog

Two Line Element Set (TLE):
1 30565U 99025ALF 25181.67189815  .00002030  00000-0  10897-2 0  9998
2 30565  98.4649  61.8443 0145577 105.7971 277.8524 14.08683341936029
Source of the keplerian elements: AFSPC